New Bern, NC

6:06 PM EDT on April 26, 2017 (GMT -0400)
Craven County Regional

Weather History for KEWN - January, 2014

Change the Weather History Date:

Sunday, January 19, 2014

  Actual Average Record
Temperature  
Mean Temperature 41 °F 44 °F  
Max Temperature 56 °F 54 °F 86 °F (2016)
Min Temperature 26 °F 34 °F 9 °F (1994)
Degree Days  
Heating Degree Days 24 21  
Month to date heating degree days 379 399  
Since 1 July heating degree days 1232 1393  
Cooling Degree Days 0 0  
Month to date cooling degree days 1 0  
Year to date cooling degree days 1 0  
Moisture  
Dew Point 26 °F    
Average Humidity 57    
Maximum Humidity 81    
Minimum Humidity 32    
Precipitation  
Precipitation T in 0.12 in 2.09 in (1978)
Month to date precipitation 3.22 2.50  
Year to date precipitation 3.22 2.50  
Snow  
Snow 0.00 in - - ()
Month to date snowfall 0.0  
Since 1 July snowfall T  
Snow Depth 0.00 in    
Sea Level Pressure  
Sea Level Pressure 30.00 in    
Wind  
Wind Speed 7 mph (SW)    
Max Wind Speed 17 mph    
Max Gust Speed 24 mph    
Visibility 10 miles    
Events Rain    
T = Trace of Precipitation, MM = Missing Value Source: NWS Daily Summary

Daily Weather History Graph

Daily Weather History Graph

Search for Another Location

Airport or City:

Trip Planner

Search our weather history database for the weather conditions in past years. The results will help you decide how hot, cold, wet, or windy it might be!

Date:

Astronomy

Jan. 19, 2014 Rise Set
Actual Time 7:14 AM EST 5:23 PM EST
Civil Twilight 6:47 AM EST 5:50 PM EST
Nautical Twilight 6:16 AM EST 6:21 PM EST
Astronomical Twilight 5:45 AM EST 6:52 PM EST
Moon 8:49 PM EST (1/19) 8:52 AM EST (1/19)
Length of Visible Light 11h 03m
Length of Day
10h 09m
Waning Gibbous, 89% of the Moon is Illuminated
Jan 19
Waning Gibbous
Jan 24
Last Quarter
Jan 30
New
Feb 6
First Quarter
Feb 14
Full

Hourly Weather History & Observations

Time (EST) Temp. Windchill Dew Point Humidity Pressure Visibility Wind Dir Wind Speed Gust Speed Precip Events Conditions
12:54 AM 28.9 °F 25.2 °F 19.0 °F 67% 30.06 in 10.0 mi South 3.5 mph - N/A   Clear
1:54 AM 28.9 °F 25.2 °F 19.0 °F 67% 30.08 in 10.0 mi SW 3.5 mph - N/A   Clear
2:54 AM 30.9 °F 26.2 °F 19.0 °F 61% 30.07 in 10.0 mi SSW 4.6 mph - N/A   Partly Cloudy
3:54 AM 33.1 °F 28.7 °F 21.0 °F 61% 30.05 in 10.0 mi SSW 4.6 mph - N/A   Mostly Cloudy
4:54 AM 32.0 °F 25.6 °F 21.0 °F 64% 30.04 in 10.0 mi SSW 6.9 mph - N/A   Clear
5:54 AM 34.0 °F 27.2 °F 21.9 °F 61% 30.03 in 10.0 mi SSW 8.1 mph - N/A   Scattered Clouds
6:54 AM 36.0 °F 29.6 °F 21.0 °F 55% 30.03 in 10.0 mi SSW 8.1 mph - N/A   Partly Cloudy
7:54 AM 37.9 °F 32.1 °F 21.0 °F 51% 30.01 in 10.0 mi SSW 8.1 mph - N/A   Overcast
8:54 AM 41.0 °F 35.8 °F 19.9 °F 43% 30.02 in 10.0 mi SW 8.1 mph - N/A   Overcast
9:54 AM 46.9 °F - 23.0 °F 39% 30.04 in 10.0 mi SW 6.9 mph - N/A   Mostly Cloudy
10:54 AM 50.0 °F - 21.9 °F 33% 30.02 in 10.0 mi SW 13.8 mph 19.6 mph N/A   Mostly Cloudy
11:54 AM 48.9 °F - 28.9 °F 46% 29.99 in 10.0 mi SW 11.5 mph - 0.00 in Rain Light Rain
12:54 PM 53.1 °F - 33.1 °F 47% 29.95 in 10.0 mi WSW 10.4 mph 17.3 mph 0.00 in   Partly Cloudy
1:54 PM 54.0 °F - 32.0 °F 43% 29.92 in 10.0 mi West 12.7 mph 19.6 mph N/A   Clear
2:54 PM 55.0 °F - 28.0 °F 35% 29.92 in 10.0 mi West 11.5 mph - N/A   Clear
3:54 PM 53.1 °F - 28.9 °F 40% 29.94 in 10.0 mi West 9.2 mph - N/A   Clear
4:54 PM 52.0 °F - 28.9 °F 41% 29.94 in 10.0 mi SW 4.6 mph - N/A   Clear
5:54 PM 48.0 °F - 30.0 °F 50% 29.96 in 10.0 mi SW 3.5 mph - N/A   Clear
6:54 PM 42.1 °F - 34.0 °F 73% 29.97 in 10.0 mi Calm Calm - N/A   Clear
7:54 PM 39.0 °F 35.7 °F 32.0 °F 76% 29.98 in 10.0 mi SSW 4.6 mph - N/A   Clear
8:54 PM 42.1 °F 39.2 °F 30.0 °F 62% 29.98 in 10.0 mi SW 4.6 mph - N/A   Clear
9:54 PM 43.0 °F 39.5 °F 30.0 °F 60% 29.98 in 10.0 mi SW 5.8 mph - N/A   Clear
10:54 PM 41.0 °F 37.1 °F 30.0 °F 65% 29.98 in 10.0 mi SSW 5.8 mph - N/A   Clear
11:54 PM 39.9 °F 35.8 °F 30.0 °F 68% 29.97 in 10.0 mi SSW 5.8 mph - N/A   Clear